Notices

What's New in latest Release from April 7th, 2021:

- Updated Glossary, including Speed of Maximum Gust, and Total Hourly Precipitation

- Updated national and regional climate services offices contacts and prices information

- Addition of station inventory lists for 1981-2010, 1971-2000, and 1961-1990 Normals.

If you haven't already, please take our survey and provide feedback about our website: https://eccc.sondage-survey.ca/f/LanguageSelection.aspx?s=442ca660-fcf1-47c0-95a9-59707d6fd709

Hourly Data Report for December 24, 2020

SHEARWATER RCS
NOVA SCOTIA
Current Station Operator: ECCC - MSC

44°37'47.000" N
63°30'48.000" W
24.00 m
8205092
71264
AAW

Download Data

Hourly Data (December 2020)
Hourly Data Report for December 24, 2020
TIME
LST
Temp Definition
°C
Dew Point Definition
°C
Rel Hum Definition
%
Precip. Amount Definition
mm

Wind Dir Definition
10's deg

Wind Spd Definition
km/h
Visibility Definition
km
Stn Press Definition
kPa
Hmdx Definition


Wind Chill Definition


Weather Definition


00:00 -7.1 -10.1 79 0.0 4 2   102.85   -8 LegendNANA
01:00 -6.8 -10.4 76 0.0 2 8   102.86   -11 LegendNANA
02:00 -7.2 -10.0 81 0.0 5 6   102.91   -10 LegendNANA
03:00 -7.2 -9.7 82 0.0 5 6   102.99   -10 LegendNANA
04:00 -6.7 -9.0 83 0.0 4 9   102.98   -11 LegendNANA
05:00 -5.7 -8.0 83 0.0 4 8   103.00   -9 LegendNANA
06:00 -5.3 -7.8 83 0.0 6 8   103.05   -9 LegendNANA
07:00 -4.9 -6.6 88 0.0 6 9   103.07   -9 LegendNANA
08:00 -3.3 -5.2 87 0.0 24 1   103.12   -4 LegendNANA
09:00 1.9 -1.9 76 0.0 17 11   103.12     LegendNANA
10:00 3.7 -0.6 74 0.0 18 18   103.15     LegendNANA
11:00 4.7 0.0 71 0.0 18 22   103.13     LegendNANA
12:00 5.6 0.5 70 0.0 18 20   103.07     LegendNANA
13:00 7.0 2.1 71 0.0 18 18   103.06     LegendNANA
14:00 6.3 3.1 80 0.0 17 16   103.05     LegendNANA
15:00 6.7 4.1 83 0.0 16 14   103.04     LegendNANA
16:00 6.7 4.5 86 0.0 15 14   102.99     LegendNANA
17:00 6.4 4.9 90 0.0 16 15   102.99     LegendNANA
18:00 6.5 5.4 93 0.0 16 14   103.03     LegendNANA
19:00 6.7 5.7 93 0.0 16 14   103.03     LegendNANA
20:00 7.6 6.2 91 0.0 15 18   102.99     LegendNANA
21:00 7.3 6.1 92 0.0 17 11   102.95     LegendNANA
22:00 7.4 6.4 94 0.0 17 13   102.93     LegendNANA
23:00 8.0 6.6 91 0.0 17 15   102.83     LegendNANA

Notes on Data Quality.

Legend

  • E = Estimated
  • M = Missing
  • NA = Not Available*
  • [empty] = Indicates an unobserved value
Date modified: